DW5321 Paradera AW current weather conditions

sailwx.info

Wind from 104 at 10 knots gusting 19

Air temperature 29.4° C
Dewpoint 25.2° C

Last reported at 2016-Jul-27 12:44 UTC.
Time now 2016-Jul-27 13:31 UTC

Location: N 12°33' W 070°00'.
View on Google Maps.

See reports from other nearby stations

  
Tides and Currents Weather Stations Pressure Air Temp Water Temp Dewpoint Dewpoint Depression Visibility Wind Speed Wind Dir Waves Ship Positions
date/time (UTC)wind fromknots sea level pressurealtimeterstation pressurevisibilityair tempwater tempwave heightnotes
2016-Jul-27 12:44 104 10 gusting 19 29.4
2016-Jul-27 12:29 107 10 gusting 19 28.9
2016-Jul-27 12:14 116 7 gusting 18 28.3
2016-Jul-27 11:59 137 10 gusting 17 28.9
2016-Jul-27 11:44 130 8 gusting 14 28.3
2016-Jul-27 11:28 094 9 gusting 18 28.3
2016-Jul-27 11:13 117 8 gusting 15 27.8
2016-Jul-27 10:58 106 10 gusting 15 27.8
2016-Jul-27 10:43 087 13 gusting 18 27.8
2016-Jul-27 10:28 103 11 gusting 19 27.8
2016-Jul-27 10:13 104 10 gusting 16 27.8
2016-Jul-27 09:58 095 8 gusting 13 27.8
2016-Jul-27 09:43 122 7 gusting 13 27.8
2016-Jul-27 09:28 110 8 gusting 16 27.8
2016-Jul-27 09:13 108 8 gusting 16 27.8
2016-Jul-27 08:58 105 8 gusting 14 27.8
2016-Jul-27 08:43 122 6 gusting 14 27.8
2016-Jul-27 08:28 110 9 gusting 15 27.8
2016-Jul-27 08:13 156 6 gusting 13 27.8
2016-Jul-27 07:58 096 6 gusting 14 27.8
2016-Jul-27 07:43 114 8 gusting 13 27.8
2016-Jul-27 07:28 066 10 gusting 16 27.8
2016-Jul-27 07:13 084 7 gusting 13 27.8
2016-Jul-27 06:58 105 6 gusting 13 27.8
2016-Jul-27 06:43 105 7 gusting 12 27.8
2016-Jul-27 06:28 061 7 gusting 13 27.8
2016-Jul-27 06:13 082 6 gusting 13 27.8
2016-Jul-27 05:58 091 5 gusting 10 27.8
2016-Jul-27 05:43 064 6 gusting 12 27.8
2016-Jul-27 05:28 108 6 gusting 13 27.8
2016-Jul-27 05:13 097 6 gusting 13 27.8
2016-Jul-27 04:58 101 7 gusting 13 27.8
2016-Jul-27 04:42 110 5 gusting 13 27.8
2016-Jul-27 04:27 096 7 gusting 13 27.8
2016-Jul-27 04:12 088 6 gusting 13 27.8
2016-Jul-27 03:57 054 5 gusting 14 27.8
2016-Jul-27 03:45 115 6 gusting 13 27.8
2016-Jul-27 03:27 111 6 gusting 11 27.8
2016-Jul-27 03:12 111 6 gusting 14 27.8
2016-Jul-27 02:57 084 6 gusting 13 27.8
2016-Jul-27 02:42 072 6 gusting 13 27.8
2016-Jul-27 02:27 077 7 gusting 13 27.8
2016-Jul-27 02:12 079 7 gusting 15 27.8
2016-Jul-27 01:57 124 7 gusting 16 27.8
2016-Jul-27 01:42 013 8 gusting 14 27.8
2016-Jul-27 01:27 079 8 gusting 19 27.8
2016-Jul-27 01:12 064 8 gusting 13 27.8
2016-Jul-27 00:57 081 9 gusting 14 27.8
2016-Jul-27 00:42 074 8 gusting 13 27.8
2016-Jul-27 00:27 071 8 gusting 13 27.8
2016-Jul-27 00:12 095 7 gusting 14 27.8
2016-Jul-26 23:57 098 6 gusting 11 27.8
2016-Jul-26 23:42 107 6 gusting 11 27.8
2016-Jul-26 23:27 083 7 gusting 12 27.8
2016-Jul-26 23:12 089 9 gusting 15 28.3
2016-Jul-26 22:57 074 6 gusting 13 28.3
2016-Jul-26 22:42 111 6 gusting 13 28.9
2016-Jul-26 22:27 094 6 gusting 14 28.9
2016-Jul-26 22:12 101 7 gusting 13 28.9
2016-Jul-26 21:57 077 6 gusting 13 29.4
2016-Jul-26 21:42 091 6 gusting 14 29.4
2016-Jul-26 21:27 073 8 gusting 16 29.4
2016-Jul-26 21:12 094 6 gusting 14 29.4
2016-Jul-26 20:57 093 9 gusting 13 30.0
2016-Jul-26 20:42 060 6 gusting 14 30.0
2016-Jul-26 20:27 100 7 gusting 14 30.0
2016-Jul-26 20:12 068 10 gusting 17 30.0
2016-Jul-26 19:57 027 9 gusting 16 30.6
2016-Jul-26 19:42 103 8 gusting 15 30.6
2016-Jul-26 19:27 082 6 gusting 16 30.6
2016-Jul-26 19:12 153 11 gusting 19 30.6
2016-Jul-26 18:57 094 9 gusting 19 30.6
2016-Jul-26 18:42 113 11 gusting 16 31.1
2016-Jul-26 18:27 107 9 gusting 18 31.1
2016-Jul-26 18:12 096 13 gusting 18 31.1
2016-Jul-26 17:57 114 7 gusting 15 30.6
2016-Jul-26 17:42 107 11 gusting 17 31.1
2016-Jul-26 17:27 114 7 gusting 19 31.1
2016-Jul-26 17:11 100 8 gusting 14 31.1
2016-Jul-26 16:56 103 11 gusting 18 31.1
2016-Jul-26 16:41 105 9 gusting 14 30.6
2016-Jul-26 16:26 094 7 gusting 17 30.0
2016-Jul-26 16:11 120 6 gusting 14 30.0
2016-Jul-26 15:56 117 9 gusting 16 30.6
2016-Jul-26 15:41 105 9 gusting 16 30.6
2016-Jul-26 15:26 124 11 gusting 18 30.0
2016-Jul-26 15:11 088 9 gusting 19 30.0
2016-Jul-26 14:56 105 12 gusting 18 28.9
2016-Jul-26 14:41 103 11 gusting 16 29.4
2016-Jul-26 14:26 092 8 gusting 16 30.0
2016-Jul-26 14:11 114 10 gusting 17 29.4
2016-Jul-26 13:56 135 10 gusting 14 28.9
2016-Jul-26 13:41 111 9 gusting 18 29.4
2016-Jul-26 13:26 103 11 gusting 18 29.4
2016-Jul-26 13:11 068 10 gusting 15 28.9
2016-Jul-26 12:56 105 12 gusting 20 28.9
2016-Jul-26 12:41 089 7 gusting 18 28.9
2016-Jul-26 12:26 112 6 gusting 12 28.9
2016-Jul-26 12:11 108 9 gusting 14 28.3
2016-Jul-26 11:56 089 11 gusting 15 28.3
2016-Jul-26 11:41 099 9 gusting 15 28.3
2016-Jul-26 11:26 110 10 gusting 15 27.8
2016-Jul-26 11:11 110 6 gusting 12 27.8
2016-Jul-26 10:56 099 7 gusting 13 27.2
2016-Jul-26 10:41 107 7 gusting 11 27.2
2016-Jul-26 10:26 108 9 gusting 14 27.2
2016-Jul-26 10:11 099 7 gusting 17 27.2
2016-Jul-26 09:56 096 6 gusting 13 27.2
2016-Jul-26 09:41 110 7 gusting 11 27.2
2016-Jul-26 09:26 108 6 gusting 13 27.2
2016-Jul-26 09:11 089 6 gusting 13 27.2
2016-Jul-26 08:56 115 8 gusting 14 27.2
2016-Jul-26 08:41 108 10 gusting 19 27.2
2016-Jul-26 08:26 080 7 gusting 17 27.2
2016-Jul-26 08:11 113 8 gusting 16 27.8
2016-Jul-26 07:56 019 8 gusting 14 27.8
2016-Jul-26 07:41 108 8 gusting 15 27.8
2016-Jul-26 07:26 106 9 gusting 14 27.8
2016-Jul-26 07:11 098 7 gusting 13 27.8
2016-Jul-26 06:56 087 7 gusting 13 27.2
2016-Jul-26 06:41 110 6 gusting 13 27.8
2016-Jul-26 06:26 057 5 gusting 13 27.8
2016-Jul-26 06:11 049 6 gusting 15 27.8
2016-Jul-26 05:55 090 6 gusting 18 27.8
2016-Jul-26 05:40 124 6 gusting 13 27.8
2016-Jul-26 05:25 023 6 gusting 17 27.2
2016-Jul-26 05:10 124 7 gusting 13 27.2
2016-Jul-26 04:55 107 8 gusting 14 27.2
2016-Jul-26 04:40 095 6 gusting 13 27.8
2016-Jul-26 04:25 096 4 gusting 13 27.8
2016-Jul-26 04:10 082 7 gusting 12 27.8
2016-Jul-26 03:55 088 6 gusting 10 27.8
2016-Jul-26 03:40 079 6 gusting 13 27.8
2016-Jul-26 03:25 091 4 gusting 17 27.8
2016-Jul-26 03:10 075 6 gusting 12 27.8
2016-Jul-26 02:55 129 7 gusting 12 27.8
2016-Jul-26 02:40 068 6 gusting 11 27.8
2016-Jul-26 02:25 105 8 gusting 14 27.8
2016-Jul-26 02:10 135 6 gusting 13 27.8
2016-Jul-26 01:55 110 6 gusting 12 27.8
2016-Jul-26 01:40 080 5 gusting 10 27.8
2016-Jul-26 01:25 086 6 gusting 14 27.8
2016-Jul-26 01:10 113 8 gusting 17 27.8
2016-Jul-26 00:55 071 10 gusting 15 28.3
2016-Jul-26 00:40 082 6 gusting 12 28.3
2016-Jul-26 00:25 113 6 gusting 15 28.3
2016-Jul-26 00:10 094 8 gusting 13 28.3
2016-Jul-25 23:55 099 7 gusting 13 28.3
2016-Jul-25 23:40 087 7 gusting 16 28.3
2016-Jul-25 23:25 077 6 gusting 14 28.3
2016-Jul-25 23:10 089 8 gusting 18 28.3
2016-Jul-25 22:55 117 6 gusting 13 28.3
2016-Jul-25 22:40 069 6 gusting 13 28.9
2016-Jul-25 22:25 105 9 gusting 14 28.9
2016-Jul-25 22:10 088 7 gusting 15 28.9
2016-Jul-25 21:55 064 12 gusting 18 28.9
2016-Jul-25 21:40 134 9 gusting 17 29.4
2016-Jul-25 21:25 066 10 gusting 18 29.4
2016-Jul-25 21:10 065 10 gusting 18 29.4
2016-Jul-25 20:55 066 9 gusting 18 30.0
2016-Jul-25 20:40 110 9 gusting 19 30.0
2016-Jul-25 20:25 078 8 gusting 19 30.6
2016-Jul-25 20:10 107 10 gusting 19 30.6
2016-Jul-25 19:55 107 10 gusting 18 30.6
2016-Jul-25 19:40 127 10 gusting 17 31.1
2016-Jul-25 19:25 082 9 gusting 15 30.6
2016-Jul-25 19:10 099 13 gusting 20 31.1
2016-Jul-25 18:55 102 13 gusting 21 31.1
2016-Jul-25 18:40 110 11 gusting 21 31.1
2016-Jul-25 18:25 098 11 gusting 19 31.1
2016-Jul-25 18:10 120 9 gusting 21 31.1
2016-Jul-25 17:55 079 11 gusting 16 31.1
2016-Jul-25 17:40 138 11 gusting 19 30.6
2016-Jul-25 17:25 085 13 gusting 19 30.6
2016-Jul-25 17:10 105 11 gusting 18 30.6
2016-Jul-25 16:55 099 11 gusting 19 30.6
2016-Jul-25 16:39 105 11 gusting 19 30.6
2016-Jul-25 16:24 114 11 gusting 17 31.1
2016-Jul-25 16:09 108 7 gusting 14 30.6
2016-Jul-25 15:54 077 7 gusting 16 30.6
2016-Jul-25 15:40 072 9 gusting 19 30.6
2016-Jul-25 15:24 097 10 gusting 17 30.6
2016-Jul-25 15:10 077 10 gusting 18 30.6
2016-Jul-25 14:54 120 9 gusting 18 30.0
2016-Jul-25 14:39 136 13 gusting 20 30.0
2016-Jul-25 14:24 110 11 gusting 17 30.0
2016-Jul-25 14:09 107 11 gusting 19 30.0
2016-Jul-25 13:55 117 11 gusting 19 29.4
2016-Jul-25 13:39 110 10 gusting 17 29.4
2016-Jul-25 13:24 110 11 gusting 20 29.4
2016-Jul-25 13:09 138 13 gusting 19 29.4